Greenville, ME

4:46 AM EST on November 15, 2019 (GMT -0500)
Greenville

Weather History for KGNR - October, 2019

Change the Weather History Date:

Tuesday, October 22, 2019

  Actual Average (KMLT) Record (KMLT)
Temperature  
Mean Temperature 48 °F -  
Max Temperature 53 °F 52 °F 80 °F (2007)
Min Temperature 43 °F 32 °F 13 °F (1959)
Degree Days  
Heating Degree Days 18    
Moisture  
Dew Point 37 °F    
Average Humidity 69    
Maximum Humidity 79    
Minimum Humidity 61    
Precipitation  
Precipitation 0.00 in - - ()
Sea Level Pressure  
Sea Level Pressure 30.17 in    
Wind  
Wind Speed 7 mph ()    
Max Wind Speed 16 mph    
Max Gust Speed 24 mph    
Averages and records for this station are not official NWS values.
T = Trace of Precipitation, MM = Missing Value Source: Averaged Metar Reports

Daily Weather History Graph

Daily Weather History Graph

Search for Another Location

Airport or City:

Astronomy

Oct. 22, 2019 Rise Set
Actual Time 7:03 AM EDT 5:41 PM EDT
Civil Twilight 6:33 AM EDT 6:11 PM EDT
Nautical Twilight 5:58 AM EDT 6:45 PM EDT
Astronomical Twilight 5:24 AM EDT 7:20 PM EDT
Moon No Moon Rise 3:10 PM EDT (10/22)
Length of Visible Light 11h 38m
Length of Day
10h 37m
Last Quarter, 37% of the Moon is Illuminated
Oct 22
Last Quarter
Oct 27
New
Nov 4
First Quarter
Nov 12
Full
Nov 19
Last Quarter

Hourly Weather History & Observations

Time (EDT) Temp. Windchill Dew Point Humidity Pressure Visibility Wind Dir Wind Speed Gust Speed Precip Events Conditions
12:56 AM 46.0 °F 43.9 °F 35.1 °F 66% 30.20 in - ESE 4.6 mph - N/A   Unknown
1:56 AM 45.0 °F 41.2 °F 35.1 °F 68% 30.21 in - East 6.9 mph - N/A   Unknown
2:56 AM 43.0 °F 39.5 °F 34.0 °F 71% 30.20 in - East 5.8 mph - N/A   Unknown
4:56 AM 43.0 °F 38.8 °F 33.1 °F 68% 30.22 in - ESE 6.9 mph - N/A   Unknown
5:56 AM 43.0 °F 38.8 °F 33.1 °F 68% 30.22 in - ESE 6.9 mph - N/A   Unknown
6:56 AM 43.0 °F 38.2 °F 33.1 °F 68% 30.21 in - East 8.1 mph - N/A   Unknown
7:56 AM 43.0 °F 38.2 °F 33.1 °F 68% 30.21 in - East 8.1 mph - N/A   Unknown
9:56 AM 48.0 °F - 37.0 °F 66% 30.21 in - South 4.6 mph - N/A   Unknown
10:56 AM 50.0 °F - 37.9 °F 63% 30.19 in - SSE 6.9 mph - N/A   Unknown
11:56 AM 50.0 °F - 37.9 °F 63% 30.19 in - SE 8.1 mph 20.7 mph N/A   Unknown
1:56 PM 52.0 °F - 39.0 °F 61% 30.17 in - SE 10.4 mph 18.4 mph N/A   Unknown
2:56 PM 52.0 °F - 39.9 °F 63% 30.17 in - SSE 11.5 mph 18.4 mph N/A   Unknown
3:56 PM 51.1 °F - 41.0 °F 68% 30.16 in - SE 10.4 mph 18.4 mph N/A   Unknown
4:56 PM 50.0 °F - 42.1 °F 74% 30.15 in - SE 10.4 mph - N/A   Unknown
5:56 PM 48.9 °F - 41.0 °F 74% 30.14 in - SE 12.7 mph - N/A   Unknown
6:56 PM 48.0 °F - 41.0 °F 77% 30.12 in - SE 12.7 mph - N/A   Unknown
7:56 PM 46.9 °F - 39.9 °F 77% 30.11 in - SE 13.8 mph - N/A   Unknown
8:00 PM - - - N/A% - - North - - N/A   Unknown
10:56 PM 46.0 °F 39.9 °F 39.9 °F 79% 30.08 in - ESE 13.8 mph 23.0 mph N/A   Unknown
11:56 PM 46.0 °F 39.3 °F 39.0 °F 76% 30.05 in - ESE 16.1 mph 24.2 mph N/A   Unknown